[[{"header":{"parameterUnit":"m.s-1","parameterCategory":1,"la1":30.2991,"la2":30.254,"lo1":-89.0895,"lo2":-89.0444,"dy":0.0017,"dx":0.0017,"nx":28,"ny":28,"refTime":"2025-01-02T09:00:00:Z","depth":0,"parameterNumber":2,"parameterNumberName":"U-component_of_WINDS"},"data":[0,0,0,0,0,0,0,0,0,0,0,0,0,0,0,0,0,0,0,0,0,0,0,0,0,0,0,0,0,0,0,0,0,0,0,0,0,0,0,0,0,0,0,0,0,0,0,0,0,0,0,0,0,0,0,0,0,0,-4.039,-4.039,0,-4.0377,-4.0376,-4.0376,-4.024,-4.0236,-4.0233,-4.023,-4.0221,-4.0224,-4.0226,0,0,0,0,0,0,0,0,0,0,0,0,0,-4.0302,-4.0304,-4.039,-4.039,-4.0389,-4.0377,-4.0376,-4.0376,-4.024,-4.0236,-4.0232,-4.0228,-4.022,-4.0223,-4.0227,0,0,0,0,0,0,0,0,0,0,0,0,0,-4.032,-4.0305,-4.039,-4.032,-4.0314,-4.0377,-4.0376,-4.0376,-4.0241,-4.0236,-4.0231,-4.0226,-4.0219,-4.0223,-4.0227,-4.0357,0,0,-4.0241,-4.0243,0,0,0,0,0,0,0,0,-4.0319,-4.0323,-4.033,-4.0325,-4.0318,-4.0304,-4.0342,-4.037,-4.0243,-4.0269,-4.023,-4.0224,-4.0253,-4.0254,-4.0263,-4.0357,-4.0357,-4.0241,-4.0244,-4.0246,-4.0247,0,0,0,0,0,0,0,-4.0318,-4.0323,-4.0385,-4.0331,-4.0323,-4.0291,-4.0288,-4.0347,-4.029,-4.0266,-4.0256,-4.0256,-4.0249,-4.0259,-4.0262,-4.0356,-4.0241,-4.0245,-4.0248,-4.0249,-4.0559,-4.0564,0,0,0,0,0,0,-4.0326,-4.0323,-4.0385,-4.0384,-4.0306,-4.0297,-4.0293,-4.0314,-4.0289,-4.028,-4.0261,-4.025,-4.0254,-4.0257,-4.0261,-4.0413,-4.0246,-4.025,-4.0252,-4.0553,-4.056,-4.0566,0,0,0,0,0,0,-4.0325,-4.0333,-4.0386,-4.0351,-4.0355,-4.0304,-4.0328,-4.0317,-4.0327,-4.0285,-4.0275,-4.0282,-4.025,-4.0255,-4.0335,-4.0411,-4.0252,-4.0256,-4.0547,-4.0555,-4.0563,-4.0719,0,0,0,0,0,0,-4.0323,-4.0333,-4.0381,-4.0353,-4.0358,-4.0458,-4.0333,-4.032,-4.0334,-4.032,-4.0302,-4.0294,-4.0247,-4.0329,-4.0339,-4.0414,-4.0259,-4.054,-4.0551,-4.0561,-4.0707,-4.0731,-4.0753,0,0,0,0,0,-4.032,-4.0426,-4.0384,-4.0392,-4.0416,-4.0463,-4.0466,-4.0408,-4.0341,-4.039,-4.0363,-4.0294,-4.0401,-4.0338,-4.0349,-4.0426,-4.0535,-4.0548,-4.056,-4.0696,-4.0726,-4.0752,0,0,0,0,0,0,-4.0465,-4.0421,-4.0374,-4.0473,-4.0473,-4.044,-4.0499,-4.0441,-4.0461,-4.0447,-4.0376,-4.0373,-4.0464,-4.0453,-4.0384,-4.0552,-4.0456,-4.0471,-4.0556,-4.0585,-4.0607,-4.0609,-4.0263,0,0,0,0,0,-4.0508,-4.0548,-4.0508,-4.06,-4.0602,-4.0551,-4.0569,-4.0525,-4.0522,-4.0522,-4.05,-4.0502,-4.0535,-4.0559,-4.0588,-4.0704,-4.0699,-4.0763,-4.0786,-4.0805,-4.082,-4.0882,-4.0911,-4.0607,-4.0607,-4.0607,0,0,-4.0598,-4.0579,-4.0609,-4.0629,-4.0623,-4.0668,-4.0552,-4.0604,-4.0638,-4.053,-4.0604,-4.0589,-4.0586,-4.0685,-4.0728,-4.0678,-4.0902,-4.0821,-4.0837,-4.084,-4.0898,-4.0927,-4.0953,-4.0616,-4.0614,-4.0613,0,0,-4.0786,-4.0775,-4.0851,-4.0848,-4.084,-4.0806,-4.0825,-4.0801,-4.0786,-4.0859,-4.078,-4.0819,-4.0878,-4.088,-4.0889,-4.1079,-4.1018,-4.1091,-4.1211,-4.1273,-4.1297,-4.1318,-4.1388,-4.1414,-4.1105,-4.1105,-4.1105,0,-4.0899,-4.0963,-4.0897,-4.0955,-4.0967,-4.0871,-4.0949,-4.0949,-4.0953,-4.0964,-4.0908,-4.0982,-4.0973,-4.1072,-4.1119,-4.1128,-4.1149,-4.1093,-4.1299,-4.1319,-4.1338,-4.1404,-4.143,-4.1114,-4.1113,-4.1112,-4.1111,0,-4.1104,-4.1149,-4.1212,-4.1217,-4.1235,-4.1303,-4.125,-4.1277,-4.1232,-4.1204,-4.1281,-4.1267,-4.1292,-4.1312,-4.1268,-4.1406,-4.1376,-4.1311,-4.1213,-4.1377,-4.1438,-4.1462,-4.1127,-4.1124,-4.1121,-4.1119,0,0,-4.1382,-4.135,-4.1375,-4.1376,-4.1362,-4.1397,-4.1461,-4.1484,-4.151,-4.1516,-4.157,-4.1623,-4.1563,-4.1573,-4.1529,-4.1583,-4.1738,-4.1512,-4.151,-4.1556,-4.1891,-4.1941,-4.1971,-4.1697,-4.1701,-4.1705,-4.1892,0,-4.1564,-4.167,-4.1614,-4.1729,-4.1772,-4.1682,-4.1738,-4.1737,-4.1713,-4.1747,-4.1721,-4.1761,-4.1677,-4.1683,-4.1733,-4.1709,-4.1804,-4.1694,-4.1748,-4.1751,-4.1753,-4.2003,-4.2055,-4.2233,-4.1915,-4.1919,-4.1922,0,-4.179,-4.1805,-4.1925,-4.1904,-4.1919,-4.1971,-4.1989,-4.2022,-4.2019,-4.1998,-4.2011,-4.1954,-4.2018,-4.1921,-4.2009,-4.1935,-4.1954,-4.1946,-4.1951,-4.1955,-4.1847,-4.2015,-4.2288,-4.2315,-4.1958,-4.1955,-4.1953,0,-4.1983,-4.2034,-4.2112,-4.2116,-4.2093,-4.2132,-4.2125,-4.2117,-4.2135,-4.2151,-4.2163,-4.2187,-4.2201,-4.2222,-4.2174,-4.2107,-4.227,-4.2168,-4.2256,-4.2258,-4.2295,-4.2294,-4.2577,-4.2306,-4.2306,-4.2305,-4.2304,0,-4.2193,-4.227,-4.2198,-4.2247,-4.2331,-4.2266,-4.2352,-4.2335,-4.233,-4.2375,-4.2298,-4.2343,-4.2276,-4.2315,-4.2278,-4.2358,-4.2364,-4.2351,-4.2341,-4.2358,-4.2361,-4.2371,-4.2358,-4.2312,-4.231,-4.2309,-4.2308,0,-4.2423,-4.2378,-4.2457,-4.243,-4.2425,-4.2488,-4.2465,-4.251,-4.2481,-4.2539,-4.2549,-4.2505,-4.2546,-4.2501,-4.2539,-4.2514,-4.2623,-4.2594,-4.2624,-4.2616,-4.2707,-4.27,-4.3008,-4.3046,-4.275,-4.2752,-4.2755,0,-4.2561,-4.2618,-4.2596,-4.262,-4.2617,-4.2657,-4.2675,-4.2615,-4.2638,-4.264,-4.2685,-4.272,-4.2744,-4.2815,-4.2788,-4.2817,-4.2789,-4.2895,-4.2793,-4.281,-4.2793,-4.279,-4.2797,-4.2916,-4.292,-4.2922,-4.2925,0,-4.281,-4.2785,-4.2813,-4.2835,-4.2859,-4.2874,-4.2882,-4.2907,-4.2844,-4.2874,-4.2915,-4.2934,-4.2973,-4.3009,-4.3031,-4.3025,-4.2967,-4.2957,-4.2979,-4.2999,-4.3015,-4.3009,-4.2682,-4.295,-4.2948,-4.2946,-4.2945,-4.2943,-4.2999,-4.3046,-4.3039,-4.3074,-4.3074,-4.3084,-4.3125,-4.3102,-4.3134,-4.316,-4.3123,-4.3175,-4.3173,-4.3196,-4.3197,-4.3238,-4.3193,-4.3225,-4.3233,-4.3243,-4.3257,-4.3007,-4.3242,-4.3241,-4.324,-4.324,-4.3239,0,-4.3245,-4.3236,-4.3269,-4.3284,-4.3312,-4.3252,-4.3259,-4.3288,-4.3334,-4.3336,-4.3362,-4.341,-4.3446,-4.3421,-4.3452,-4.3489,-4.3463,-4.35,-4.3497,-4.3497,-4.3295,-4.3273,-4.352,-4.352,-4.352,-4.352,-4.352,-4.352,-4.3377,-4.3454,-4.3429,-4.3507,-4.3497,-4.3546,-4.3556,-4.3566,-4.3568,-4.3625,-4.3653,-4.3637,-4.3629,-4.3659,-4.369,-4.3682,-4.3697,-4.3744,-4.3727,-4.3539,-4.3511,-4.3485,-4.3464,-4.3747,-4.3748,-4.3926,-4.3927,-4.3929]},{"header":{"parameterUnit":"m.s-1","parameterCategory":1,"la1":30.2991,"la2":30.254,"lo1":-89.0895,"lo2":-89.0444,"dy":0.0017,"dx":0.0017,"nx":28,"ny":28,"refTime":"2025-01-02T09:00:00:Z","depth":0,"parameterNumber":3,"parameterNumberName":"V-component_of_WINDS"},"data":[0,0,0,0,0,0,0,0,0,0,0,0,0,0,0,0,0,0,0,0,0,0,0,0,0,0,0,0,0,0,0,0,0,0,0,0,0,0,0,0,0,0,0,0,0,0,0,0,0,0,0,0,0,0,0,0,0,0,-0.3609,-0.3609,0,-0.3632,-0.3632,-0.3632,-0.3613,-0.3613,-0.3612,-0.3611,-0.3637,-0.3638,-0.3639,0,0,0,0,0,0,0,0,0,0,0,0,0,-0.3549,-0.355,-0.3609,-0.3609,-0.3609,-0.3632,-0.3632,-0.3632,-0.3614,-0.3613,-0.3612,-0.3611,-0.3636,-0.3638,-0.3639,0,0,0,0,0,0,0,0,0,0,0,0,0,-0.3573,-0.355,-0.3609,-0.3602,-0.3602,-0.3632,-0.3632,-0.3632,-0.3614,-0.3613,-0.3611,-0.361,-0.3636,-0.3638,-0.364,-0.3677,0,0,-0.3646,-0.3647,0,0,0,0,0,0,0,0,-0.3572,-0.3576,-0.3603,-0.3603,-0.3603,-0.3618,-0.362,-0.3647,-0.3614,-0.3609,-0.3611,-0.361,-0.3632,-0.3634,-0.3641,-0.3678,-0.3679,-0.3646,-0.3648,-0.3649,-0.3649,0,0,0,0,0,0,0,-0.357,-0.3575,-0.3618,-0.3604,-0.3603,-0.3599,-0.3601,-0.3625,-0.3627,-0.361,-0.3608,-0.3611,-0.3631,-0.3639,-0.3641,-0.368,-0.3646,-0.3648,-0.365,-0.365,-0.3747,-0.3748,0,0,0,0,0,0,-0.3569,-0.3573,-0.3617,-0.3618,-0.3584,-0.3601,-0.3603,-0.3615,-0.3627,-0.3627,-0.3612,-0.361,-0.3636,-0.3639,-0.3642,-0.3686,-0.3649,-0.3651,-0.3652,-0.3746,-0.3747,-0.3749,0,0,0,0,0,0,-0.3568,-0.3573,-0.3616,-0.3596,-0.3601,-0.3603,-0.3616,-0.3616,-0.3623,-0.3629,-0.3629,-0.362,-0.3635,-0.3639,-0.3668,-0.3687,-0.3652,-0.3654,-0.3744,-0.3746,-0.3748,-0.3775,0,0,0,0,0,0,-0.3566,-0.3573,-0.3587,-0.3596,-0.3602,-0.3642,-0.3617,-0.3617,-0.3627,-0.3625,-0.3636,-0.3637,-0.3635,-0.3665,-0.367,-0.3689,-0.3655,-0.3743,-0.3745,-0.3748,-0.3772,-0.3777,-0.3782,0,0,0,0,0,-0.3564,-0.3594,-0.3588,-0.3593,-0.362,-0.3643,-0.3646,-0.3643,-0.3629,-0.3643,-0.3646,-0.3636,-0.3684,-0.3668,-0.3674,-0.3694,-0.3742,-0.3745,-0.3747,-0.377,-0.3776,-0.3782,0,0,0,0,0,0,-0.3589,-0.3595,-0.3589,-0.3622,-0.3632,-0.3639,-0.3658,-0.3649,-0.3664,-0.3661,-0.3657,-0.3659,-0.3689,-0.3694,-0.3677,-0.373,-0.371,-0.3715,-0.3726,-0.3732,-0.3736,-0.3735,-0.3657,0,0,0,0,0,-0.3598,-0.3616,-0.3621,-0.365,-0.3655,-0.3655,-0.3665,-0.3662,-0.3672,-0.3676,-0.3681,-0.3692,-0.3709,-0.372,-0.3737,-0.3772,-0.3774,-0.3789,-0.3794,-0.3797,-0.3801,-0.382,-0.3827,-0.3758,-0.3758,-0.3758,0,0,-0.3618,-0.3623,-0.3635,-0.3655,-0.3662,-0.3681,-0.3659,-0.368,-0.3694,-0.3679,-0.3707,-0.3711,-0.3722,-0.3754,-0.3769,-0.3759,-0.382,-0.3801,-0.3804,-0.3806,-0.3824,-0.383,-0.3836,-0.376,-0.376,-0.376,0,0,-0.3663,-0.3669,-0.3694,-0.3701,-0.3711,-0.3711,-0.3717,-0.3725,-0.3727,-0.3754,-0.3743,-0.3759,-0.3789,-0.3797,-0.3806,-0.3852,-0.3843,-0.3857,-0.3883,-0.3901,-0.3906,-0.3911,-0.3928,-0.3934,-0.3861,-0.3861,-0.3861,0,-0.3686,-0.3714,-0.3708,-0.3729,-0.3738,-0.3724,-0.3749,-0.3756,-0.3772,-0.3779,-0.3767,-0.3803,-0.381,-0.3844,-0.3855,-0.3862,-0.3869,-0.3856,-0.3906,-0.391,-0.3915,-0.3931,-0.3937,-0.3862,-0.3862,-0.3862,-0.3862,0,-0.3742,-0.3761,-0.3779,-0.3794,-0.3805,-0.3828,-0.3825,-0.3837,-0.3832,-0.3833,-0.386,-0.3867,-0.3884,-0.3891,-0.3887,-0.3924,-0.3918,-0.3906,-0.3887,-0.3923,-0.3938,-0.3944,-0.3865,-0.3864,-0.3864,-0.3863,0,0,-0.3805,-0.3814,-0.3821,-0.3827,-0.3837,-0.3851,-0.3873,-0.3889,-0.3899,-0.391,-0.3928,-0.3953,-0.3942,-0.3951,-0.3947,-0.3963,-0.3999,-0.3949,-0.3949,-0.3958,-0.404,-0.4049,-0.4057,-0.3992,-0.3994,-0.3994,-0.4039,0,-0.3851,-0.3889,-0.3884,-0.392,-0.3938,-0.3924,-0.3943,-0.3951,-0.3951,-0.3966,-0.3967,-0.3985,-0.3969,-0.3974,-0.3989,-0.3991,-0.4015,-0.3988,-0.401,-0.4011,-0.4009,-0.4064,-0.4074,-0.4117,-0.4045,-0.4046,-0.4047,0,-0.391,-0.3922,-0.396,-0.3966,-0.3973,-0.399,-0.4003,-0.4018,-0.4026,-0.4025,-0.4035,-0.4027,-0.4049,-0.4028,-0.4058,-0.404,-0.4048,-0.405,-0.4052,-0.4055,-0.4032,-0.4069,-0.413,-0.4136,-0.4056,-0.4055,-0.4054,0,-0.3953,-0.3978,-0.4004,-0.4009,-0.4017,-0.4029,-0.4033,-0.404,-0.4049,-0.406,-0.4066,-0.4081,-0.4089,-0.41,-0.4096,-0.4081,-0.4127,-0.4106,-0.4128,-0.4128,-0.4139,-0.4139,-0.4203,-0.4143,-0.4143,-0.4143,-0.4143,0,-0.4005,-0.403,-0.4023,-0.4039,-0.4065,-0.4058,-0.4085,-0.4087,-0.4092,-0.4109,-0.4097,-0.4113,-0.4107,-0.4122,-0.4119,-0.4145,-0.4148,-0.4148,-0.4148,-0.415,-0.415,-0.4156,-0.4154,-0.4145,-0.4144,-0.4144,-0.4144,0,-0.4058,-0.4055,-0.4082,-0.4086,-0.4088,-0.4107,-0.411,-0.4125,-0.4124,-0.4145,-0.4149,-0.4148,-0.4165,-0.4162,-0.4181,-0.4179,-0.4211,-0.4206,-0.4208,-0.4207,-0.4229,-0.4228,-0.43,-0.431,-0.4244,-0.4244,-0.4245,0,-0.4093,-0.4111,-0.4116,-0.4125,-0.413,-0.4145,-0.4154,-0.4148,-0.4158,-0.4167,-0.4181,-0.4197,-0.4209,-0.4237,-0.4238,-0.4252,-0.4248,-0.4273,-0.425,-0.4252,-0.4249,-0.4248,-0.425,-0.4277,-0.4278,-0.4279,-0.4279,0,-0.4154,-0.4151,-0.4164,-0.4176,-0.4187,-0.4197,-0.4205,-0.4214,-0.4207,-0.4219,-0.4236,-0.4245,-0.4264,-0.428,-0.4293,-0.4296,-0.4287,-0.4286,-0.4292,-0.4295,-0.4295,-0.4296,-0.4221,-0.4285,-0.4284,-0.4284,-0.4284,-0.4283,-0.4199,-0.4214,-0.4219,-0.4234,-0.4239,-0.4247,-0.4261,-0.4261,-0.4275,-0.4289,-0.4284,-0.4303,-0.431,-0.4326,-0.4331,-0.4346,-0.4337,-0.4345,-0.4348,-0.435,-0.4353,-0.4292,-0.4348,-0.4348,-0.4348,-0.4348,-0.4348,0,-0.4259,-0.4262,-0.4275,-0.4287,-0.4299,-0.4287,-0.4295,-0.4306,-0.4323,-0.4329,-0.4341,-0.436,-0.4375,-0.4376,-0.439,-0.4401,-0.4397,-0.4405,-0.4405,-0.4406,-0.436,-0.4354,-0.4408,-0.4408,-0.4408,-0.4408,-0.4408,-0.4408,-0.4293,-0.4317,-0.4314,-0.4341,-0.4344,-0.4362,-0.4367,-0.4374,-0.4379,-0.4401,-0.4412,-0.4413,-0.4417,-0.4431,-0.4444,-0.4444,-0.445,-0.446,-0.4458,-0.4415,-0.4409,-0.4404,-0.4398,-0.4461,-0.4461,-0.4503,-0.4503,-0.4504]}]]